This demonstration page uses our WeatherBlox Daily Observations layout. Learn more.

Left ArrowRight Arrow

36.19886, -115.1175

Hourly Observations for November 1, 2021

Temp ( °F °C ) Dew Point ( °F °C ) Humidity (%) Winds ( mph kmh ) Pressure ( in mb ) Visibility ( mi km ) Precip ( " mm )
12:53 am 00:53 Clear 63 17.2 34 1.1 34 34 Calm 29.93 1014 10 16 0.00 0.00
1:53 am 01:53 Clear 64 17.8 34 1.1 33 33 WNW 5 7 29.94 1014 10 16 0.00 0.00
2:53 am 02:53 Clear 61 16.1 34 1.1 36 36 WNW 5 7 29.95 1014 10 16 0.00 0.00
3:53 am 03:53 Clear 60 15.6 35 1.7 39 39 N 5 7 29.95 1014 10 16 0.00 0.00
4:53 am 04:53 Clear 58 14.4 34 1.1 41 41 WNW 6 9 29.96 1015 10 16 0.00 0.00
5:53 am 05:53 Clear 58 14.4 35 1.7 42 42 WNW 7 11 29.98 1015 10 16 0.00 0.00
6:53 am 06:53 Clear 57 13.9 36 2.2 45 45 WNW 6 9 30.00 1016 10 16 0.00 0.00
7:53 am 07:53 Sunny 58 14.4 37 2.8 46 46 NW 5 7 30.01 1016 10 16 0.00 0.00
8:53 am 08:53 Sunny 64 17.8 39 3.9 40 40 Calm 30.03 1017 10 16 0.00 0.00
9:53 am 09:53 Sunny 67 19.4 39 3.9 36 36 Calm 30.04 1017 10 16 0.00 0.00
10:53 am 10:53 Sunny 72 22.2 39 3.9 30 30 VRB 6 9 30.04 1017 10 16 0.00 0.00
11:53 am 11:53 Sunny 73 22.8 38 3.3 28 28 E 7 11 30.03 1017 10 16 0.00 0.00
12:53 pm 12:53 Sunny 74 23.3 37 2.8 26 26 E 8 13 30.00 1016 10 16 0.00 0.00
1:53 pm 13:53 Sunny 76 24.4 36 2.2 23 23 ESE 10 17 29.98 1015 10 16 0.00 0.00
2:53 pm 14:53 Sunny 79 26.1 26 -3.3 14 14 S 12 19 29.96 1015 10 16 0.00 0.00
3:53 pm 15:53 Sunny 80 26.7 26 -3.3 14 14 S 15 24 29.96 1015 10 16 0.00 0.00
4:53 pm 16:53 Sunny 78 25.6 27 -2.8 15 15 S 12 19 29.96 1015 10 16 0.00 0.00
5:53 pm 17:53 Clear 75 23.9 31 -0.6 20 20 SSE 13 20 29.98 1015 10 16 0.00 0.00
6:53 pm 18:53 Clear 74 23.3 32 0 21 21 S 9 15 29.99 1016 10 16 0.00 0.00
7:53 pm 19:53 Mostly Clear 74 23.3 29 -1.7 19 19 S 10 17 30.01 1016 10 16 0.00 0.00
8:53 pm 20:53 Mostly Clear 74 23.3 30 -1.1 20 20 VRB 3 6 30.02 1017 10 16 0.00 0.00
9:53 pm 21:53 Clear 74 23.3 31 -0.6 20 20 WSW 10 17 30.03 1017 10 16 0.00 0.00
10:53 pm 22:53 Clear 73 22.8 31 -0.6 21 21 SSW 12 19 30.03 1017 10 16 0.00 0.00
11:53 pm 23:53 Clear 70 21.1 32 0 25 25 NNW 3 6 30.04 1017 10 16 0.00 0.00

Powered by AerisWeather